Suraya

operational
NORAD ID: 58817 Int'l Des: 2024-015 Owner: IRSA Country: IR
LEOCIRCULAR

About Suraya

Description loading...

Live Position

Loading 3D Globe...

Upcoming Passes

Altitude History

Altitude vs Time

uPlot chart will show altitude changes over time

Two-Line Element Set

1 58817U 24015A 26062.19800891 .00000183 00000-0 87031-4 0 9998
2 58817 64.5164 28.7547 0015068 231.1178 128.8564 14.42671159111482
Epoch: Mar 3, 2026 • Age: 26 hours

Current Status

Altitude 758.4 km
Velocity 7.47 km/s
Sub-Earth Point -5.11°S, 173.46°W
Launch Date Jan 20, 2024
Age 2.1 years
Type other

Technical Details

Classification Payload
Mass 50.00 kg
Dry Mass 50.00 kg
Total Mass 50.00 kg
Length 0.50 m
Diameter 0.50 m
Span 0.50 m
Shape Box
Manufacturer ISRC
Phase Status In Orbit
Owner/State IRSA/IR

Large Constellations

Loading constellations...